Home > Time Zones > World Clock > Weather > Belgium > Spa > Past weeks

Flag Weather past 2 weeks in Spa, Belgium

Now
49 °F

Clear.


Feels Like: 46 °F
Forecast: 42 / 48 °F
Wind: 7 mph from South

Location: Spa / La Sauveniere

Current Time: Nov 23, 2014 at 1:00:03 AM

Latest Report: Nov 23, 2014 at 12:00 AM


Visibility: 6 mi

Pressure: 30.10 "Hg

Humidity: 90%

Dew point: 47 °F

Location of SpaLocation

Historic Weather in Spa — Graph

°F

Spa temperature yesterday

Maximum temperature yesterday: 50 °F (at 11:00 PM)
Minimum temperature yesterday: 40 °F (at 8:00 AM)
Average temperature yesterday: 45 °F

Past Weeks' High & Low Weather Summary

 TemperatureHumidityPressure
High57 °F (Nov 11, 2:00 PM)99% (Nov 13, 7:00 AM)30.31 "Hg (Nov 13, 7:00 AM)
Low37 °F (Nov 20, 3:00 AM)70% (Nov 10, 3:00 PM)29.54 "Hg (Nov 16, 4:00 PM)
Average44 °F90%29.80 "Hg
* Reported Nov 7 11:00 PM — Nov 22 11:00 PM, Spa, Weather by CustomWeather, © 2014

Note: Actual official high and low records may vary slightly from our data, if they occured in-between our weather recording intervals... More about our weather records

Advertising

Spa weather history for previous 24 hours

 ConditionsComfort  
Time TempWeatherWind HumidityBarometerVisibility
11:00 PM
Nov 22
50 °FClear.10 mph89%30.08 "Hg7 mi
10:00 PM48 °FClear.9 mph91%30.09 "HgN/A
9:00 PM48 °FClear.12 mph90%30.07 "HgN/A
8:00 PM48 °FClear.12 mph91%30.08 "HgN/A
7:00 PM47 °FClear.10 mph91%30.08 "HgN/A
6:00 PM48 °FClear.9 mph90%30.07 "HgN/A
5:00 PM49 °FClear.10 mph90%30.07 "HgN/A
4:00 PM49 °FSunny.8 mph86%30.07 "HgN/A
3:00 PM50 °FSunny.7 mph87%30.06 "HgN/A
2:00 PM49 °FSunny.9 mph87%30.08 "HgN/A
1:00 PM47 °FFog.9 mph92%30.10 "Hg3 mi
12:00 PM46 °FFog.9 mph94%30.10 "Hg3 mi
11:00 AM45 °FFog.9 mph95%30.11 "Hg2 mi
10:00 AM43 °FFog.9 mph97%30.11 "Hg1 mi
9:00 AM41 °FDense fog.9 mph97%30.11 "Hg1 mi
8:00 AM40 °FLight snow. Dense fog.10 mph97%30.09 "Hg1 mi
7:00 AM41 °FFog.10 mph97%30.09 "Hg2 mi
6:00 AM41 °FFog.10 mph97%30.09 "Hg1 mi
5:00 AM41 °FFog.9 mph97%30.09 "Hg2 mi
4:00 AM42 °FFog.9 mph96%30.10 "Hg2 mi
3:00 AM41 °FFog.10 mph96%30.10 "Hg2 mi
2:00 AM41 °FFog.9 mph95%30.09 "Hg2 mi
1:00 AM42 °FFog.7 mph96%30.10 "Hg2 mi
Weather by CustomWeather, © 2014

See weather overviewHow to use our weather pages